Weather History for Kenosha, WI

Change the Weather History Date:

Wednesday, February 5, 2014

  Actual Average Record
Temperature  
Mean Temperature 14 °F -  
Max Temperature 24 °F 28 °F 50 °F (2005)
Min Temperature 3 °F 12 °F -31 °F (2007)
Degree Days  
Heating Degree Days 52    
Moisture  
Dew Point 15 °F    
Average Humidity 79    
Maximum Humidity 88    
Minimum Humidity 62    
Precipitation  
Precipitation 0.03 in - - ()
Sea Level Pressure  
Sea Level Pressure 30.21 in    
Wind  
Wind Speed 13 mph (North)    
Max Wind Speed 23 mph    
Max Gust Speed 32 mph    
Visibility 4 miles    
Events Fog , Snow    
Averages and records for this station are not official NWS values.
T = Trace of Precipitation, MM = Missing Value Source: NWS Daily Summary

Daily Weather History Graph

Daily Weather History Graph

Search for Another Location

Airport:

Trip Planner

Search our weather history database for the weather conditions in past years. The results will help you decide how hot, cold, wet, or windy it might be!

Date:

Astronomy

Feb. 05, 2014 Rise Set
Actual Time 7:01 AM CST 5:10 PM CST
Civil Twilight 6:31 AM CST 5:40 PM CST
Nautical Twilight 5:58 AM CST 6:13 PM CST
Astronomical Twilight 5:25 AM CST 6:46 PM CST
Moon 10:06 AM CST (2/5) No Moon Set
Length of Visible Light 11h 08m
Length of Day
10h 09m
Waxing Crescent, 39% of the Moon is Illuminated
Feb 5
Waxing Crescent
Feb 6
First Quarter
Feb 14
Full
Feb 22
Last Quarter
Mar 1
New

Hourly Weather History & Observations

Time (CST) Temp. Windchill Dew Point Humidity Pressure Visibility Wind Dir Wind Speed Gust Speed Precip Events Conditions
12:02 AM 24.1 °F 13.1 °F 21.0 °F 88% 30.11 in 0.8 mi NE 11.5 mph - 0.00 in Snow Light Snow
12:26 AM 24.1 °F 13.1 °F 21.0 °F 88% 30.11 in 1.0 mi NE 11.5 mph - 0.01 in Snow Light Snow
12:43 AM 24.1 °F 11.0 °F 21.0 °F 88% 30.10 in 0.8 mi NE 16.1 mph - 0.01 in Snow Light Snow
12:53 AM 24.1 °F 12.5 °F 21.0 °F 88% 30.14 in 0.8 mi NNE 12.7 mph - 0.01 in Snow Light Snow
1:28 AM 24.1 °F 12.0 °F 21.0 °F 88% 30.09 in 0.8 mi NNE 13.8 mph - 0.01 in Snow Light Snow
1:39 AM 24.1 °F 13.1 °F 21.0 °F 88% 30.10 in 1.0 mi NE 11.5 mph - 0.01 in Snow Light Snow
1:48 AM 24.8 °F 12.9 °F 21.2 °F 86% 30.09 in 0.8 mi NNE 13.8 mph - 0.01 in Snow Light Snow
1:53 AM 24.1 °F 12.0 °F 21.0 °F 88% 30.13 in 0.8 mi NE 13.8 mph - 0.01 in Snow Light Snow
2:12 AM 24.1 °F 12.5 °F 21.0 °F 88% 30.09 in 1.0 mi NNE 12.7 mph - 0.00 in Snow Light Snow
2:26 AM 24.1 °F 12.5 °F 21.0 °F 88% 30.08 in 1.2 mi NNE 12.7 mph - 0.00 in Snow Light Snow
2:34 AM 24.1 °F 12.0 °F 19.9 °F 84% 30.08 in 0.8 mi NNE 13.8 mph 24.2 mph 0.00 in Snow Light Snow
2:53 AM 24.1 °F 12.0 °F 21.0 °F 88% 30.12 in 0.8 mi NE 13.8 mph - 0.00 in Snow Light Snow
3:05 AM 24.1 °F 12.5 °F 21.0 °F 88% 30.08 in 1.0 mi NE 12.7 mph - 0.00 in Snow Light Snow
3:17 AM 24.1 °F 11.0 °F 21.0 °F 88% 30.08 in 1.0 mi NNE 16.1 mph - 0.01 in Snow Light Snow
3:24 AM 24.1 °F 10.1 °F 21.0 °F 88% 30.07 in 1.2 mi NNE 18.4 mph - 0.01 in Snow Light Snow
3:29 AM 24.1 °F 10.1 °F 19.9 °F 84% 30.07 in 1.2 mi NNE 18.4 mph - 0.01 in Snow Light Snow
3:48 AM 24.8 °F 12.4 °F 21.2 °F 86% 30.07 in 1.0 mi NNE 15.0 mph - 0.01 in Snow Light Snow
3:53 AM 24.1 °F 9.4 °F 21.0 °F 88% 30.11 in 0.8 mi NE 20.7 mph 25.3 mph 0.01 in Snow Light Snow
4:45 AM 24.1 °F 9.8 °F 21.0 °F 88% 30.07 in 1.2 mi NE 19.6 mph - 0.00 in Snow Light Snow
4:50 AM 24.8 °F 10.7 °F 19.4 °F 80% 30.07 in 1.2 mi NNE 19.6 mph - 0.00 in Snow Light Snow
4:53 AM 24.1 °F 9.8 °F 19.9 °F 84% 30.10 in 1.2 mi NNE 19.6 mph - 0.00 in Snow Light Snow
5:43 AM 24.1 °F 11.0 °F 19.9 °F 84% 30.08 in 0.8 mi NNE 16.1 mph 21.9 mph 0.00 in Snow Light Snow
5:53 AM 24.1 °F 12.0 °F 21.0 °F 88% 30.12 in 1.0 mi NNE 13.8 mph - 0.00 in Snow Light Snow
6:30 AM 23.0 °F 7.2 °F 18.0 °F 81% 30.10 in 1.5 mi NNE 23.0 mph 28.8 mph 0.00 in Snow Light Snow
6:53 AM 23.0 °F 7.6 °F 19.0 °F 85% 30.16 in 0.8 mi NNE 21.9 mph 32.2 mph 0.00 in Snow Light Snow
7:26 AM 21.9 °F 7.3 °F 18.0 °F 85% 30.13 in 0.8 mi NNE 18.4 mph - 0.00 in Snow Light Snow
7:53 AM 21.9 °F 7.3 °F 18.0 °F 85% 30.18 in 0.8 mi NNE 18.4 mph 29.9 mph 0.00 in Snow Light Snow
8:28 AM 21.0 °F 8.1 °F 17.1 °F 85% 30.16 in 0.5 mi North 13.8 mph 24.2 mph 0.00 in Fog , Snow Snow
8:53 AM 19.9 °F 7.3 °F 15.1 °F 81% 30.21 in 0.8 mi North 12.7 mph 23.0 mph 0.00 in Snow Light Snow
9:42 AM 19.9 °F 7.3 °F 15.1 °F 81% 30.20 in 0.8 mi North 12.7 mph - 0.00 in Snow Light Snow
9:53 AM 19.9 °F 7.3 °F 14.0 °F 78% 30.24 in 1.0 mi North 12.7 mph 24.2 mph 0.00 in Snow Light Snow
10:09 AM 19.9 °F 6.7 °F 14.0 °F 78% 30.22 in 2.5 mi North 13.8 mph 21.9 mph 0.00 in Snow Light Snow
10:41 AM 21.0 °F 6.6 °F 12.9 °F 71% 30.23 in 7.0 mi North 17.3 mph 23.0 mph 0.00 in Snow Light Snow
10:53 AM 21.9 °F 10.4 °F 14.0 °F 72% 30.27 in 8.0 mi North 11.5 mph 20.7 mph 0.00 in Snow Light Snow
11:36 AM 19.9 °F 4.8 °F 12.0 °F 71% 30.24 in 9.0 mi NNW 18.4 mph - 0.00 in Snow Light Snow
11:53 AM 21.0 °F 8.1 °F 12.0 °F 68% 30.28 in 9.0 mi North 13.8 mph - 0.00 in   Overcast
12:53 PM 21.0 °F 8.6 °F 10.9 °F 65% 30.28 in 10.0 mi NNW 12.7 mph 24.2 mph N/A   Overcast
1:29 PM 19.9 °F 6.7 °F 10.0 °F 65% 30.26 in 10.0 mi NNW 13.8 mph - N/A   Overcast
1:53 PM 19.9 °F 7.3 °F 10.0 °F 65% 30.31 in 10.0 mi NNW 12.7 mph - N/A   Overcast
2:00 PM 19.9 °F 7.9 °F 10.0 °F 65% 30.27 in 10.0 mi NNW 11.5 mph - N/A   Overcast
2:31 PM 19.9 °F 9.3 °F 9.0 °F 62% 30.28 in 10.0 mi NNW 9.2 mph - N/A   Overcast
2:53 PM 19.9 °F 9.3 °F 9.0 °F 62% 30.34 in 10.0 mi North 9.2 mph - N/A   Overcast
3:00 PM 19.9 °F 9.3 °F 9.0 °F 62% 30.30 in 10.0 mi NNW 9.2 mph - N/A   Overcast
3:53 PM 19.0 °F 6.1 °F 8.1 °F 62% 30.37 in 10.0 mi NNW 12.7 mph - N/A   Overcast
4:23 PM 18.0 °F 6.1 °F 7.0 °F 62% 30.35 in 10.0 mi NW 10.4 mph - N/A   Overcast
4:53 PM 16.0 °F 2.9 °F 6.1 °F 65% 30.40 in 10.0 mi NNW 11.5 mph - N/A   Scattered Clouds
5:53 PM 15.1 °F 4.2 °F 5.0 °F 64% 30.42 in 10.0 mi NNW 8.1 mph - N/A   Overcast
6:53 PM 14.0 °F 5.1 °F 3.9 °F 64% 30.43 in 10.0 mi NW 5.8 mph - N/A   Scattered Clouds
7:53 PM 10.0 °F 1.8 °F 3.0 °F 73% 30.44 in 10.0 mi WNW 4.6 mph - N/A   Mostly Cloudy
8:53 PM 3.9 °F -5.3 °F -0.9 °F 80% 30.45 in 10.0 mi WNW 4.6 mph - N/A   Partly Cloudy
9:46 PM 5.0 °F -2.1 °F 1.9 °F 87% 30.41 in 10.0 mi WSW 3.5 mph - N/A   Mostly Cloudy
9:53 PM 5.0 °F -2.1 °F 1.0 °F 84% 30.45 in 10.0 mi West 3.5 mph - N/A   Mostly Cloudy
10:53 PM 8.1 °F 1.4 °F 3.9 °F 83% 30.45 in 10.0 mi West 3.5 mph - N/A   Overcast
11:53 PM 9.0 °F 0.6 °F 5.0 °F 84% 30.44 in 10.0 mi West 4.6 mph - N/A   Overcast